Regional Weather Roundup
Issued by NWS Kansas City/Pleasant Hill, MO

Home | Current Version | Previous Version | Text Only | Print | Product List | Glossary On
Versions: 1 2 3 4 5 6 7 8 9 10 11 12 13 14 15 16 17 18 19 20 21 22 23 24 25 26 27 28 29 30 31 32 33 34 35 36 37 38 39 40 41 42 43 44 45 46 47 48 49 50
000
ASUS43 KEAX 232110
RWREAX

WEATHER ROUNDUP FOR EASTERN KANSAS AND NORTHWEST MISSOURI
NATIONAL WEATHER SERVICE KANSAS CITY/PLEASANT HILL MO
300 PM CST MON JAN 23 2017

KSZ040-057-103>105-MOZ028-029-037-043-232200-
...KANSAS CITY METROPOLITAN AREA...

CITY           SKY/WX    TMP DP  RH WIND       PRES   REMARKS
K.C. INTL      PTSUNNY   39  30  70 SE3       29.82F
K.C. DOWNTOWN  MOSUNNY   42  33  70 CALM      29.84F
LEES SUMMIT    SUNNY     42  33  70 CALM      29.84F
OLATHE - IXD   SUNNY     40  34  79 E5        29.83F
OLATHE - OJC   SUNNY     41  33  73 E3        29.82F
LAWRENCE       MOSUNNY   41  34  76 E6        29.83F HAZE

$$

MOZ001>008-011>017-020>025-030>033-038>040-044>046-053-054-232200-
...NORTHERN AND CENTRAL MISSOURI...

CITY           SKY/WX    TMP DP  RH WIND       PRES   REMARKS
ST. JOSEPH     SUNNY     41  33  73 N3        29.84F
MOSBY          CLEAR     41  32  70 SW3       29.84F
WARRENSBURG    CLOUDY    37  32  81 CALM      29.85F
WHITEMAN AFB   MOSUNNY   39  36  90 VRB3      29.84F
CLINTON        PTSUNNY   41  36  81 NE5       29.87F
SEDALIA        CLOUDY    40  33  76 CALM      29.87F
WARSAW         NOT AVBL
CHILLICOTHE      N/A     36  30  79 NE6       29.86F WCI  31
KIRKSVILLE     CLOUDY    33  30  88 NW5       29.86S WCI  29

$$

MOZ041-047>049-056>058-063>065-088>090-097-232200-
...EASTERN AND SOUTHERN MISSOURI...

CITY           SKY/WX    TMP DP  RH WIND       PRES   REMARKS
ST. LOUIS INTL CLOUDY    43  34  70 NW12      29.83R
SPIRIT OF STL  CLOUDY    43  35  73 NW12      29.84R
COLUMBIA       CLOUDY    38  33  82 NW13      29.85F WCI  30
JEFFERSON CITY CLOUDY    41  34  76 NW7       29.86F
ROLLA          CLOUDY    42  34  73 NW7       29.82F
OSAGE BEACH    CLOUDY    44  35  70 NW3       29.86S
SPRINGFIELD    SUNNY     50  32  50 NW6       29.83F
BRANSON        SUNNY     48  36  61 W6        29.85F
JOPLIN         SUNNY     51  34  52 CALM      29.84F
WEST PLAINS    MOSUNNY   52  34  50 NW10      29.83S

$$

IAZ060-094-KSZ022-034>040-054-083-096-NEZ052-066-093-232200-
...KANSAS...SOUTHEAST NEBRASKA AND IOWA...

CITY           SKY/WX    TMP DP  RH WIND       PRES   REMARKS
TOPEKA         PTSUNNY   40  34  79 E10       29.81F HAZE    WCI  33
MANHATTAN      SUNNY     51  36  56 E9        29.75F
EMPORIA        SUNNY     54  31  41 SE12      29.76F
CHANUTE        SUNNY     52  34  50 SE8       29.80F
WICHITA        SUNNY     54  33  45 S17       29.73F
OMAHA          CLOUDY    36  28  73 E6        29.83F WCI  31
LINCOLN        PTSUNNY   39  32  76 SE8       29.80F WCI  33
FALLS CITY     CLOUDY    38  31  76 E6        29.82F WCI  33
LAMONI         CLOUDY    33  29  85 N6        29.82F WCI  28
DES MOINES     CLOUDY    35  28  75 NW5       29.84F WCI  31

$$




USA.gov is the U.S. government's official web portal to all federal, state and local government web resources and services.